Home > Weather > Kyiv > Past weeks

Flag for Ukraine Past Weather in Kyiv, Ukraine — Yesterday and Last 2 Weeks

Now
72 °F

Sunny.


Feels Like: 72 °F
Forecast: 65 / 84 °F
Wind: 8 mph from Northwest

Location: Kyiv

Current Time: Jul 30, 2016 at 10:31:17 AM

Latest Report: Jul 30, 2016 at 10:00 AM


Visibility: 10 mi

Pressure: 29.92 "Hg

Humidity: 78%

Dew Point: 64 °F

Location of KyivLocation

Past Weather in Kyiv — Graph

°F

Kyiv Temperature Yesterday

Maximum temperature yesterday: 90 °F (at 1:00 PM)
Minimum temperature yesterday: 64 °F (at 4:00 AM)
Average temperature yesterday: 79 °F

High & Low Weather Summary for the Past Weeks

 TemperatureHumidityPressure
High93 °F (Jul 17, 2:00 PM)100% (Jul 18, 3:00 PM)30.09 "Hg (Jul 18, 3:00 PM)
Low55 °F (Jul 21, 12:30 AM)33% (Jul 28, 4:30 PM)29.62 "Hg (Jul 18, 7:00 PM)
Average72 °F68%29.91 "Hg
* Reported Jul 15 9:00 AM — Jul 30 9:30 AM, Kyiv, Weather by CustomWeather, © 2016

Note: Actual official high and low records may vary slightly from our data, if they occured in-between our weather recording intervals... More about our weather records

Advertising

Kyiv Weather History for the Previous 24 Hours

Scroll right to see more
 ConditionsComfort  
Time TempWeatherWind HumidityBarometerVisibility
9:30 AM
Sat, Jul 30
72 °FSunny.8 mph73%29.92 "Hg10 mi
9:00 AM70 °FSunny.8 mph83%29.92 "Hg10 mi
8:30 AM70 °FSunny.10 mph78%29.92 "Hg10 mi
8:00 AM70 °FPassing clouds.8 mph83%29.92 "HgN/A
7:30 AM70 °FPassing clouds.8 mph78%29.92 "HgN/A
7:00 AM70 °FSunny.8 mph78%29.89 "Hg10 mi
6:30 AM70 °FSunny.8 mph78%29.89 "Hg10 mi
6:00 AM70 °FClear.6 mph78%29.89 "Hg10 mi
5:30 AM68 °FClear.6 mph83%29.89 "Hg10 mi
5:00 AM68 °FClear.8 mph83%29.89 "Hg10 mi
4:30 AM68 °FClear.8 mph83%29.89 "Hg10 mi
4:00 AM68 °FClear.6 mph83%29.89 "Hg10 mi
3:30 AM68 °FClear.6 mph78%29.89 "Hg10 mi
3:00 AM70 °FPassing clouds.6 mph78%29.89 "HgN/A
2:30 AM72 °FClear.1 mph69%29.86 "Hg10 mi
2:00 AM72 °FClear.10 mph73%29.86 "Hg10 mi
1:30 AM72 °FClear.1 mph73%29.86 "Hg10 mi
1:00 AM75 °FPassing clouds.3 mph65%29.86 "HgN/A
12:30 AM75 °FClear.6 mph61%29.86 "Hg10 mi
12:00 AM73 °FClear.3 mph69%29.86 "Hg10 mi
11:30 PM
Fri, Jul 29
75 °FClear.6 mph61%29.89 "Hg10 mi
11:00 PM73 °FClear.1 mph69%29.86 "Hg10 mi
10:30 PM73 °FClear.3 mph69%29.86 "HgN/A
10:00 PM75 °FClear.3 mph65%29.86 "Hg6 mi
9:30 PM77 °FClear.3 mph61%29.86 "Hg6 mi
9:00 PM77 °FClear.No wind65%29.86 "Hg6 mi
8:30 PM79 °FSunny.1 mph58%29.86 "Hg10 mi
8:00 PM81 °FPassing clouds.3 mph54%29.86 "HgN/A
7:30 PM84 °FSunny.1 mph48%29.86 "Hg10 mi
7:00 PM86 °FClear.6 mph43%29.86 "Hg6 mi
6:30 PM88 °FPassing clouds.6 mph40%29.86 "HgN/A
6:00 PM88 °FPassing clouds.6 mph40%29.86 "HgN/A
5:30 PM88 °FPassing clouds.3 mph40%29.86 "HgN/A
5:00 PM86 °FPartly sunny.8 mph43%29.86 "HgN/A
4:30 PM88 °FPartly sunny.8 mph40%29.86 "HgN/A
4:00 PM88 °FPartly sunny.3 mph40%29.89 "HgN/A
3:30 PM90 °FPassing clouds.3 mph36%29.89 "HgN/A
3:00 PM88 °FPassing clouds.6 mph38%29.89 "HgN/A
2:30 PM90 °FPassing clouds.6 mph36%29.92 "HgN/A
2:00 PM90 °FPassing clouds.6 mph33%29.92 "HgN/A
1:30 PM90 °FPassing clouds.6 mph41%29.92 "HgN/A
1:00 PM90 °FPassing clouds.6 mph41%29.92 "HgN/A
12:30 PM88 °FPassing clouds.6 mph35%29.95 "HgN/A
12:00 PM88 °FPassing clouds.8 mph38%29.95 "HgN/A
11:30 AM86 °FPassing clouds.6 mph43%29.95 "HgN/A
11:00 AM86 °FPassing clouds.6 mph46%29.95 "HgN/A
10:30 AM84 °FPassing clouds.6 mph51%29.95 "HgN/A
10:00 AM82 °FPassing clouds.6 mph51%29.95 "HgN/A
Weather by CustomWeather, © 2016

See weather overviewHow to use our weather pages